POPACS 1

Last updated on Wed Jul 02 2025 00:03:43 GMT+0000 (Coordinated Universal Time)

1 39268U 13055D 25182.07518579 .00034524 -32371-6 29391-3 0 9990 2 39268 80.9694 60.3497 0228842 269.4367 88.0652 15.42470976617949
UTC large
Height (km)
Speed (km/s)
/
Latitude / Longitude
Inclination (degrees)
Orbital Period (minutes)
Azimuth
Elevation
Range (km)
Doppler Factor

Next 0 passes for location: London (51.5072 / 0.1276)

Sorry there are no passes over London.